Location: Malanoce
(44.2500°N, 7.4667°E)
Time: 22:19:34
(UTC+00:00)

Cosmos 2026 Rocket - Pass Details

Date: 17 November 2025
Orbit: 938 x 1000 km, 82.9° (Epoch: 11 December)

Event Time Altitude Azimuth Distance (km) Brightness Sun altitude
Rises 17:51:03 0° 356° (N) 3,613 6.9 -19.5°
Reaches altitude 10° 17:53:38 10° 2° (N) 2,669 6.2 -20.0°
Maximum altitude 17:59:31 48° 77° (ENE) 1,221 4.1 -21.0°
Drops below altitude 10° 18:05:25 10° 151° (SSE) 2,684 6.1 -22.1°
Sets 18:08:01 0° 157° (SSE) 3,635 6.8 -22.6°
